TimeCST,TemperatureF,Dew PointF,Humidity,Sea Level PressureIn,VisibilityMPH,Wind Direction,Wind SpeedMPH,Gust SpeedMPH,PrecipitationIn,Events,Conditions,WindDirDegrees,DateUTC
12:15 AM,39.2,35.6,87,30.22,10.0,Calm,Calm,-,N/A,,Clear,0,2013-01-20 06:15:00
12:35 AM,37.4,35.6,93,30.22,10.0,Calm,Calm,-,N/A,,Clear,0,2013-01-20 06:35:00
12:55 AM,35.6,33.8,93,30.22,10.0,Calm,Calm,-,N/A,,Clear,0,2013-01-20 06:55:00
1:15 AM,37.4,35.6,93,30.22,10.0,Calm,Calm,-,N/A,,Clear,0,2013-01-20 07:15:00
1:35 AM,37.4,35.6,93,30.22,10.0,Calm,Calm,-,N/A,,Clear,0,2013-01-20 07:35:00
1:55 AM,37.4,35.6,93,30.22,10.0,Calm,Calm,-,N/A,,Clear,0,2013-01-20 07:55:00
2:15 AM,35.6,35.6,100,30.22,10.0,Calm,Calm,-,N/A,,Clear,0,2013-01-20 08:15:00
2:35 AM,37.4,35.6,93,30.22,7.0,Calm,Calm,-,N/A,,Clear,0,2013-01-20 08:35:00
2:55 AM,35.6,35.6,100,30.21,7.0,Calm,Calm,-,N/A,,Clear,0,2013-01-20 08:55:00
3:15 AM,35.6,35.6,100,30.21,7.0,Calm,Calm,-,N/A,,Clear,0,2013-01-20 09:15:00
3:35 AM,37.4,35.6,93,30.21,4.0,Calm,Calm,-,N/A,,Clear,0,2013-01-20 09:35:00
3:55 AM,35.6,33.8,93,30.20,3.0,Calm,Calm,-,N/A,,Clear,0,2013-01-20 09:55:00
4:15 AM,35.6,35.6,100,30.20,3.0,Calm,Calm,-,N/A,,Clear,0,2013-01-20 10:15:00
4:35 AM,35.6,33.8,93,30.19,3.0,Calm,Calm,-,N/A,,Clear,0,2013-01-20 10:35:00
4:55 AM,33.8,33.8,100,30.19,5.0,Calm,Calm,-,N/A,,Clear,0,2013-01-20 10:55:00
5:15 AM,33.8,33.8,100,30.19,2.5,Calm,Calm,-,N/A,,Clear,0,2013-01-20 11:15:00
5:35 AM,33.8,33.8,100,30.19,3.0,Calm,Calm,-,N/A,,Clear,0,2013-01-20 11:35:00
6:15 AM,33.8,32.0,93,30.19,3.0,Calm,Calm,-,N/A,,Clear,0,2013-01-20 12:15:00
6:35 AM,33.8,33.8,100,30.19,4.0,Calm,Calm,-,N/A,,Clear,0,2013-01-20 12:35:00
6:55 AM,33.8,33.8,100,30.19,4.0,Calm,Calm,-,N/A,,Clear,0,2013-01-20 12:55:00
7:15 AM,33.8,32.0,93,30.20,2.5,Calm,Calm,-,N/A,,Clear,0,2013-01-20 13:15:00
7:35 AM,35.6,33.8,93,30.21,1.2,NE,4.6,-,N/A,,Mist,40,2013-01-20 13:35:00
7:55 AM,35.6,33.8,93,30.21,2.5,Calm,Calm,-,N/A,,Clear,0,2013-01-20 13:55:00
8:15 AM,37.4,35.6,93,30.22,4.0,Calm,Calm,-,N/A,,Clear,0,2013-01-20 14:15:00
8:35 AM,37.4,37.4,100,30.22,5.0,Calm,Calm,-,N/A,,Clear,0,2013-01-20 14:35:00
8:55 AM,41.0,37.4,87,30.22,10.0,Calm,Calm,-,N/A,,Clear,0,2013-01-20 14:55:00
9:15 AM,42.8,39.2,87,30.22,10.0,Calm,Calm,-,N/A,,Clear,0,2013-01-20 15:15:00
9:35 AM,44.6,41.0,87,30.22,10.0,Calm,Calm,-,N/A,,Clear,0,2013-01-20 15:35:00
9:55 AM,46.4,42.8,87,30.22,10.0,Calm,Calm,-,N/A,,Clear,0,2013-01-20 15:55:00
10:15 AM,50.0,42.8,76,30.22,10.0,Calm,Calm,-,N/A,,Clear,0,2013-01-20 16:15:00
10:35 AM,51.8,42.8,71,30.22,10.0,ESE,3.5,-,N/A,,Clear,110,2013-01-20 16:35:00
10:55 AM,55.4,42.8,63,30.22,10.0,SE,4.6,-,N/A,,Clear,140,2013-01-20 16:55:00
11:15 AM,55.4,42.8,63,30.21,10.0,SE,4.6,-,N/A,,Clear,130,2013-01-20 17:15:00
11:35 AM,57.2,42.8,59,30.19,10.0,SSE,3.5,-,N/A,,Clear,160,2013-01-20 17:35:00
11:55 AM,59.0,42.8,55,30.18,10.0,Calm,Calm,-,N/A,,Clear,0,2013-01-20 17:55:00
12:15 PM,60.8,42.8,52,30.17,10.0,South,5.8,-,N/A,,Clear,180,2013-01-20 18:15:00
12:35 PM,62.6,41.0,45,30.15,10.0,South,8.1,-,N/A,,Clear,170,2013-01-20 18:35:00
12:55 PM,62.6,41.0,45,30.15,10.0,South,11.5,-,N/A,,Clear,180,2013-01-20 18:55:00
1:15 PM,62.6,39.2,42,30.14,10.0,South,11.5,16.1,N/A,,Clear,170,2013-01-20 19:15:00
1:35 PM,62.6,41.0,45,30.12,10.0,SSE,5.8,-,N/A,,Clear,160,2013-01-20 19:35:00
1:55 PM,64.4,41.0,42,30.12,10.0,SE,6.9,-,N/A,,Clear,140,2013-01-20 19:55:00
2:15 PM,64.4,41.0,42,30.11,10.0,SSE,5.8,-,N/A,,Clear,150,2013-01-20 20:15:00
2:35 PM,64.4,39.2,40,30.10,10.0,SSE,8.1,-,N/A,,Clear,150,2013-01-20 20:35:00
2:55 PM,66.2,37.4,35,30.10,10.0,SW,6.9,-,N/A,,Clear,220,2013-01-20 20:55:00
3:15 PM,66.2,35.6,32,30.09,10.0,WSW,4.6,-,N/A,,Clear,250,2013-01-20 21:15:00
3:35 PM,68.0,35.6,30,30.09,10.0,WSW,3.5,-,N/A,,Clear,240,2013-01-20 21:35:00
3:55 PM,66.2,35.6,32,30.09,10.0,SSW,4.6,-,N/A,,Clear,200,2013-01-20 21:55:00
4:15 PM,66.2,35.6,32,30.09,10.0,Calm,Calm,-,N/A,,Clear,0,2013-01-20 22:15:00
4:35 PM,66.2,35.6,32,30.08,10.0,WSW,5.8,-,N/A,,Clear,240,2013-01-20 22:35:00
4:55 PM,64.4,35.6,34,30.08,10.0,SSW,3.5,-,N/A,,Clear,200,2013-01-20 22:55:00
5:15 PM,64.4,35.6,34,30.08,10.0,South,3.5,-,N/A,,Clear,190,2013-01-20 23:15:00
5:35 PM,62.6,35.6,37,30.09,10.0,Calm,Calm,-,N/A,,Clear,0,2013-01-20 23:35:00
5:55 PM,62.6,35.6,37,30.09,10.0,Calm,Calm,-,N/A,,Clear,0,2013-01-20 23:55:00
6:15 PM,57.2,35.6,44,30.10,10.0,Calm,Calm,-,N/A,,Clear,0,2013-01-21 00:15:00
6:35 PM,55.4,37.4,51,30.10,10.0,Calm,Calm,-,N/A,,Clear,0,2013-01-21 00:35:00
6:55 PM,51.8,37.4,58,30.11,10.0,Calm,Calm,-,N/A,,Clear,0,2013-01-21 00:55:00
7:15 PM,51.8,37.4,58,30.11,10.0,Calm,Calm,-,N/A,,Clear,0,2013-01-21 01:15:00
7:35 PM,50.0,37.4,62,30.11,10.0,Calm,Calm,-,N/A,,Clear,0,2013-01-21 01:35:00
7:55 PM,50.0,37.4,62,30.11,10.0,Calm,Calm,-,N/A,,Clear,0,2013-01-21 01:55:00
8:15 PM,48.2,37.4,66,30.12,10.0,Calm,Calm,-,N/A,,Clear,0,2013-01-21 02:15:00
8:35 PM,46.4,37.4,71,30.12,10.0,Calm,Calm,-,N/A,,Clear,0,2013-01-21 02:35:00
8:55 PM,46.4,37.4,71,30.13,10.0,Calm,Calm,-,N/A,,Clear,0,2013-01-21 02:55:00
9:15 PM,44.6,37.4,76,30.13,10.0,Calm,Calm,-,N/A,,Clear,0,2013-01-21 03:15:00
9:35 PM,46.4,37.4,71,30.14,10.0,Calm,Calm,-,N/A,,Clear,0,2013-01-21 03:35:00
9:55 PM,44.6,37.4,76,30.14,10.0,Calm,Calm,-,N/A,,Clear,0,2013-01-21 03:55:00
10:15 PM,42.8,37.4,81,30.15,10.0,Calm,Calm,-,N/A,,Clear,0,2013-01-21 04:15:00
10:35 PM,42.8,37.4,81,30.15,10.0,NNW,3.5,-,N/A,,Clear,340,2013-01-21 04:35:00
10:55 PM,42.8,37.4,81,30.15,10.0,Calm,Calm,-,N/A,,Clear,0,2013-01-21 04:55:00
11:15 PM,44.6,37.4,76,30.15,10.0,Calm,Calm,-,N/A,,Clear,0,2013-01-21 05:15:00
11:35 PM,42.8,37.4,81,30.15,10.0,Calm,Calm,-,N/A,,Clear,0,2013-01-21 05:35:00
11:55 PM,46.4,37.4,71,30.16,10.0,North,3.5,-,N/A,,Clear,10,2013-01-21 05:55:00